Date String (YYYY-MM-DD hh:mm:ss) UTC,Instrument flags,Ambient pressure (hPa),Sample flow (lpm),Bypass flow (lpm),Sample temperature (°C),Ambient temperature (°C),ASC tube jacket temperature (°C),LED temperature (°C),Box temperature (°C),Sample RH (%),Span deviation,Mass concentration (μg/m³),Mass concentration (μg/m³),Mass concentration (μg/m³)
DateTimeUTC,F1_M11,P_M11,Q1_M11,Q2_M11,T1_M11,T2_M11,T3_M11,T4_M11,T5_M11,U1_M11,ZSPAN_M11,X0_M11,X2_M11,X1_M11
2023-01-04 05:00:00,,0817.4,5.00,0.00,22.2,20.4,00.0,31.2,23.8,12.1,0000.0,0017.99,0013.99,0013.75
2023-01-04 05:01:00,,0817.5,5.01,0.00,22.1,20.5,00.0,31.1,23.8,12.0,0000.0,0017.83,0013.95,0013.71
2023-01-04 05:02:00,,0817.4,4.99,0.00,22.1,20.5,00.0,31.1,23.8,11.9,0000.0,0017.99,0014.07,0013.80
2023-01-04 05:03:00,,0817.4,5.01,0.00,22.1,20.5,00.0,31.1,23.8,11.9,0000.0,0018.09,0014.19,0013.94
2023-01-04 05:04:00,,0817.4,4.99,0.00,22.1,20.6,00.0,31.1,23.8,11.9,0000.0,0018.10,0014.20,0013.97
2023-01-04 05:05:00,,0817.3,5.01,0.00,22.2,21.4,00.0,31.0,24.0,11.6,0000.0,0016.97,0013.90,0013.67
2023-01-04 05:06:00,,0817.4,4.99,0.00,22.3,22.3,00.0,31.0,24.2,11.5,0000.0,0016.12,0013.22,0013.03
2023-01-04 05:07:00,,0817.5,5.00,0.00,22.4,22.8,00.0,31.1,24.4,11.7,0000.0,0016.08,0013.42,0013.22
2023-01-04 05:08:00,,0817.5,4.99,0.00,22.4,22.5,00.0,31.1,24.4,11.7,0000.0,0016.51,0013.82,0013.60
2023-01-04 05:09:00,,0817.4,4.99,0.00,22.4,22.1,00.0,31.2,24.3,11.8,0000.0,0016.60,0013.91,0013.68
2023-01-04 05:10:00,,0817.4,5.00,0.00,22.4,21.8,00.0,31.2,24.2,11.8,0000.0,0016.56,0013.87,0013.65
2023-01-04 05:11:00,,0817.4,5.01,0.00,22.4,21.5,00.0,31.2,24.2,11.7,0000.0,0015.95,0013.52,0013.30
2023-01-04 05:12:00,,0817.5,5.00,0.00,22.4,21.4,00.0,31.2,24.2,11.6,0000.0,0015.50,0013.05,0012.83
2023-01-04 05:13:00,,0817.5,5.00,0.00,22.4,21.2,00.0,31.2,24.1,11.6,0000.0,0015.64,0012.68,0012.45
2023-01-04 05:14:00,,0817.6,5.00,0.00,22.4,21.1,00.0,31.2,24.1,11.7,0000.0,0015.65,0012.60,0012.37
2023-01-04 05:15:00,,0817.4,5.00,0.00,22.4,21.0,00.0,31.2,24.1,11.7,0000.0,0015.60,0012.56,0012.33
2023-01-04 05:16:00,,0817.5,5.00,0.00,22.3,21.0,00.0,31.2,24.1,11.7,0000.0,0015.89,0012.69,0012.46
2023-01-04 05:17:00,,0817.4,5.01,0.00,22.3,20.9,00.0,31.2,24.0,11.9,0000.0,0016.54,0013.34,0013.09
2023-01-04 05:18:00,,0817.3,4.99,0.00,22.3,20.8,00.0,31.2,23.9,12.0,0000.0,0016.96,0013.76,0013.49
2023-01-04 05:19:00,,0817.3,4.99,0.00,22.2,20.6,00.0,31.2,23.9,12.1,0000.0,0017.05,0013.90,0013.64
2023-01-04 05:20:00,,0817.4,5.01,0.00,22.2,20.9,00.0,31.1,23.9,12.2,0000.0,0017.07,0013.91,0013.65
2023-01-04 05:21:00,,0817.5,5.01,0.00,22.3,21.8,00.0,31.1,24.2,12.1,0000.0,0017.06,0013.93,0013.68
2023-01-04 05:22:00,,0817.5,4.99,0.00,22.4,22.8,00.0,31.1,24.4,12.0,0000.0,0017.55,0014.27,0014.03
2023-01-04 05:23:00,,0817.5,4.99,0.00,22.5,22.7,00.0,31.2,24.5,12.0,0000.0,0018.55,0014.84,0014.57
2023-01-04 05:24:00,,0817.5,5.00,0.00,22.5,22.2,00.0,31.2,24.4,12.1,0000.0,0018.88,0015.45,0015.18
2023-01-04 05:25:00,,0817.4,5.00,0.00,22.5,21.9,00.0,31.2,24.3,12.1,0000.0,0018.92,0015.76,0015.50
2023-01-04 05:26:00,,0817.4,5.00,0.00,22.5,21.6,00.0,31.3,24.3,12.1,0000.0,0019.32,0016.03,0015.74
2023-01-04 05:27:00,,0817.4,5.00,0.00,22.5,21.4,00.0,31.3,24.2,12.2,0000.0,0019.29,0016.08,0015.77
2023-01-04 05:28:00,,0817.4,5.00,0.00,22.5,21.2,00.0,31.3,24.2,12.2,0000.0,0020.04,0016.19,0015.83
2023-01-04 05:29:00,,0817.5,5.01,0.00,22.4,21.1,00.0,31.3,24.1,12.1,0000.0,0020.67,0016.27,0015.91
2023-01-04 05:30:00,,0817.5,5.01,0.00,22.4,21.0,00.0,31.3,24.1,12.1,-002.1,0021.04,0016.36,0015.99
2023-01-04 05:31:00,,0817.5,5.00,0.00,22.4,21.0,00.0,31.3,24.1,12.0,-002.3,0021.19,0016.46,0016.09
2023-01-04 05:32:00,,0817.5,4.99,0.00,22.4,20.9,00.0,31.3,24.1,12.0,-002.0,0021.46,0016.56,0016.16
2023-01-04 05:33:00,,0817.3,4.99,0.00,22.3,20.9,00.0,31.3,24.0,12.1,-002.2,0022.60,0016.69,0016.24
2023-01-04 05:34:00,,0817.3,5.01,0.00,22.3,20.8,00.0,31.2,24.0,12.2,-001.5,0023.06,0016.89,0016.34
2023-01-04 05:35:00,,0817.4,5.02,0.00,22.3,21.5,00.0,31.2,24.2,12.2,-001.6,0024.31,0017.13,0016.44
2023-01-04 05:36:00,,0817.5,4.99,0.00,22.5,22.5,00.0,31.2,24.4,12.0,-001.8,0024.81,0017.26,0016.52
2023-01-04 05:37:00,,0817.5,5.00,0.00,22.6,22.9,00.0,31.2,24.6,11.7,-001.2,0025.04,0017.33,0016.56
2023-01-04 05:38:00,,0817.4,5.00,0.00,22.6,22.4,00.0,31.3,24.5,11.8,-001.6,0026.16,0017.52,0016.69
2023-01-04 05:39:00,,0817.5,5.00,0.00,22.6,22.0,00.0,31.3,24.4,11.8,-001.9,0027.07,0017.67,0016.82
2023-01-04 05:40:00,,0817.5,5.01,0.00,22.6,21.7,00.0,31.3,24.3,11.9,-001.4,0027.48,0017.83,0016.90
2023-01-04 05:41:00,,0817.5,5.00,0.00,22.6,21.5,00.0,31.3,24.3,11.8,-001.5,0027.55,0017.95,0016.97
2023-01-04 05:42:00,,0817.5,5.00,0.00,22.5,21.2,00.0,31.3,24.3,11.6,-001.8,0027.76,0018.02,0017.01
2023-01-04 05:43:00,,0817.4,4.99,0.00,22.5,21.1,00.0,31.3,24.2,11.6,-002.0,0028.24,0018.09,0017.07
2023-01-04 05:44:00,,0817.3,5.00,0.00,22.5,21.0,00.0,31.3,24.2,11.6,-001.8,0028.30,0018.00,0016.98
2023-01-04 05:45:00,,0817.4,5.01,0.00,22.4,20.9,00.0,31.3,24.1,11.7,-001.9,0027.94,0017.99,0016.96
2023-01-04 05:46:00,,0817.4,5.00,0.00,22.4,20.9,00.0,31.3,24.1,11.8,-001.9,0027.67,0017.97,0016.98
2023-01-04 05:47:00,,0817.4,5.00,0.00,22.4,20.9,00.0,31.3,24.1,11.7,-001.9,0029.28,0017.83,0016.84
2023-01-04 05:48:00,,0817.3,5.00,0.00,22.4,20.8,00.0,31.3,24.1,11.7,-002.0,0030.36,0017.82,0016.74
2023-01-04 05:49:00,,0817.4,5.00,0.00,22.4,20.8,00.0,31.3,24.0,11.7,-002.0,0030.56,0017.73,0016.62
2023-01-04 05:50:00,,0817.4,5.00,0.00,22.4,21.2,00.0,31.2,24.1,11.5,-001.9,0030.02,0017.58,0016.46
2023-01-04 05:51:00,,0817.4,5.01,0.00,22.5,22.1,00.0,31.2,24.4,11.3,-001.9,0029.77,0017.44,0016.29
2023-01-04 05:52:00,,0817.5,5.00,0.00,22.6,22.9,00.0,31.2,24.6,11.3,-001.9,0030.10,0017.34,0016.14
2023-01-04 05:53:00,,0817.4,4.99,0.00,22.7,22.8,00.0,31.3,24.7,11.2,-001.8,0030.96,0017.39,0016.04
2023-01-04 05:54:00,,0817.3,4.99,0.00,22.7,22.4,00.0,31.3,24.6,11.3,-001.8,0032.40,0017.43,0015.92
2023-01-04 05:55:00,,0817.4,5.00,0.00,22.7,22.1,00.0,31.4,24.5,11.3,-002.1,0032.28,0017.49,0015.88
2023-01-04 05:56:00,,0817.5,5.00,0.00,22.7,21.7,00.0,31.4,24.4,11.3,-002.0,0033.12,0017.64,0015.92
2023-01-04 05:57:00,,0817.3,4.99,0.00,22.6,21.5,00.0,31.4,24.4,11.3,-001.7,0033.88,0017.56,0015.79
2023-01-04 05:58:00,,0817.3,5.00,0.00,22.6,21.4,00.0,31.4,24.3,11.3,-001.5,0034.14,0017.63,0015.77
2023-01-04 05:59:00,,0817.3,5.00,0.00,22.6,21.3,00.0,31.4,24.3,11.4,-001.5,0033.05,0017.70,0015.81
